Time,TemperatureF,DewpointF,PressureIn,WindDirection,WindDirectionDegrees,WindSpeedMPH,WindSpeedGustMPH,Humidity,HourlyPrecipIn,Conditions,Clouds,dailyrainin,SoftwareType,DateUTC
2013-03-11 00:00:00,34.3,27.8,30.35,NE,45,0.0,0.0,77,0.00,,,0.00,WUHU21623XXSP,2013-03-11 04:00:00,
2013-03-11 00:05:00,34.5,28.6,30.35,NE,45,0.0,0.0,79,0.00,,,0.00,WUHU21623XXSP,2013-03-11 04:05:00,
2013-03-11 00:10:00,34.3,28.1,30.35,NE,45,0.0,0.0,78,0.00,,,0.00,WUHU21623XXSP,2013-03-11 04:10:00,
2013-03-11 00:15:00,34.0,27.8,30.35,NE,45,0.0,0.0,78,0.00,,,0.00,WUHU21623XXSP,2013-03-11 04:15:00,
2013-03-11 00:20:00,33.8,27.6,30.34,NE,45,0.0,0.0,78,0.00,,,0.00,WUHU21623XXSP,2013-03-11 04:20:00,
2013-03-11 00:25:00,33.6,27.7,30.34,NE,45,0.0,0.0,79,0.00,,,0.00,WUHU21623XXSP,2013-03-11 04:25:00,
2013-03-11 00:30:00,33.6,27.7,30.34,NE,45,0.0,1.1,79,0.00,,,0.00,WUHU21623XXSP,2013-03-11 04:30:00,
2013-03-11 00:35:00,33.6,27.7,30.35,NE,45,0.0,1.1,79,0.00,,,0.00,WUHU21623XXSP,2013-03-11 04:35:00,
2013-03-11 00:40:00,33.6,27.7,30.36,NE,45,0.0,0.0,79,0.00,,,0.00,WUHU21623XXSP,2013-03-11 04:40:00,
2013-03-11 00:45:00,33.6,28.1,30.36,NE,45,0.0,0.0,80,0.00,,,0.00,WUHU21623XXSP,2013-03-11 04:45:00,
2013-03-11 00:50:00,33.6,27.7,30.36,NE,45,0.0,0.0,79,0.00,,,0.00,WUHU21623XXSP,2013-03-11 04:50:00,
2013-03-11 00:55:00,33.4,27.6,30.35,NE,45,0.0,0.0,79,0.00,,,0.00,WUHU21623XXSP,2013-03-11 04:55:00,
2013-03-11 01:00:00,33.6,28.1,30.35,NE,45,0.0,2.0,80,0.00,,,0.00,WUHU21623XXSP,2013-03-11 05:00:00,
2013-03-11 01:05:00,33.4,28.1,30.35,NE,45,0.0,2.0,80,0.00,,,0.00,WUHU21623XXSP,2013-03-11 05:05:00,
2013-03-11 01:10:00,33.6,28.1,30.35,NE,45,0.0,0.0,80,0.00,,,0.00,WUHU21623XXSP,2013-03-11 05:10:00,
2013-03-11 01:15:00,33.3,27.7,30.36,NE,45,0.0,0.0,80,0.00,,,0.00,WUHU21623XXSP,2013-03-11 05:15:00,
2013-03-11 01:20:00,33.1,27.6,30.36,NE,45,0.0,0.0,80,0.00,,,0.00,WUHU21623XXSP,2013-03-11 05:20:00,
2013-03-11 01:25:00,32.9,27.7,30.36,NE,45,0.0,0.0,81,0.00,,,0.00,WUHU21623XXSP,2013-03-11 05:25:00,
2013-03-11 01:30:00,32.7,27.5,30.36,NE,45,0.0,0.0,81,0.00,,,0.00,WUHU21623XXSP,2013-03-11 05:30:00,
2013-03-11 01:35:00,32.7,27.5,30.36,NE,45,0.0,0.0,81,0.00,,,0.00,WUHU21623XXSP,2013-03-11 05:35:00,
2013-03-11 01:40:00,32.7,27.5,30.36,NE,45,0.0,0.0,81,0.00,,,0.00,WUHU21623XXSP,2013-03-11 05:40:00,
2013-03-11 01:45:00,32.7,27.5,30.36,NE,45,0.0,0.0,81,0.00,,,0.00,WUHU21623XXSP,2013-03-11 05:45:00,
2013-03-11 01:50:00,32.7,27.5,30.36,NE,45,0.0,0.0,81,0.00,,,0.00,WUHU21623XXSP,2013-03-11 05:50:00,
2013-03-11 01:55:00,32.5,27.7,30.36,NE,45,0.0,0.0,82,0.00,,,0.00,WUHU21623XXSP,2013-03-11 05:55:00,
2013-03-11 02:00:00,32.5,27.7,30.35,NE,45,0.0,0.0,82,0.00,,,0.00,WUHU21623XXSP,2013-03-11 06:00:00,
2013-03-11 02:05:00,32.5,27.7,30.35,NE,45,0.0,0.0,82,0.00,,,0.00,WUHU21623XXSP,2013-03-11 06:05:00,
2013-03-11 02:10:00,32.5,27.7,30.36,NE,45,0.0,0.0,82,0.00,,,0.00,WUHU21623XXSP,2013-03-11 06:10:00,
2013-03-11 02:15:00,32.5,27.7,30.35,NE,45,0.0,0.0,82,0.00,,,0.00,WUHU21623XXSP,2013-03-11 06:15:00,
2013-03-11 02:20:00,32.4,27.5,30.35,NE,45,0.0,0.0,82,0.00,,,0.00,WUHU21623XXSP,2013-03-11 06:20:00,
2013-03-11 02:25:00,32.4,27.5,30.35,NE,45,0.0,0.0,82,0.00,,,0.00,WUHU21623XXSP,2013-03-11 06:25:00,
2013-03-11 02:30:00,32.4,27.5,30.34,NE,45,0.0,0.0,82,0.00,,,0.00,WUHU21623XXSP,2013-03-11 06:30:00,
2013-03-11 02:35:00,32.2,27.3,30.33,NE,45,0.0,0.0,82,0.00,,,0.00,WUHU21623XXSP,2013-03-11 06:35:00,
2013-03-11 02:40:00,32.2,27.6,30.33,NE,45,0.0,0.0,83,0.00,,,0.00,WUHU21623XXSP,2013-03-11 06:40:00,
2013-03-11 02:45:00,32.2,27.6,30.33,NE,45,0.0,0.0,83,0.00,,,0.00,WUHU21623XXSP,2013-03-11 06:45:00,
2013-03-11 02:50:00,31.8,27.3,30.33,NE,45,0.0,0.0,83,0.00,,,0.00,WUHU21623XXSP,2013-03-11 06:50:00,
2013-03-11 02:55:00,32.2,27.6,30.32,NE,45,0.0,0.0,83,0.00,,,0.00,WUHU21623XXSP,2013-03-11 06:55:00,
2013-03-11 03:00:00,31.8,27.3,30.32,NE,45,0.0,0.0,83,0.00,,,0.00,WUHU21623XXSP,2013-03-11 07:00:00,
2013-03-11 03:05:00,31.6,27.1,30.32,NE,45,0.0,0.0,83,0.00,,,0.00,WUHU21623XXSP,2013-03-11 07:05:00,
2013-03-11 03:10:00,31.6,27.4,30.32,NE,45,0.0,0.0,84,0.00,,,0.00,WUHU21623XXSP,2013-03-11 07:10:00,
2013-03-11 03:15:00,31.6,27.4,30.31,NE,45,0.0,0.0,84,0.00,,,0.00,WUHU21623XXSP,2013-03-11 07:15:00,
2013-03-11 03:20:00,31.6,27.4,30.31,NE,45,0.0,0.0,84,0.00,,,0.00,WUHU21623XXSP,2013-03-11 07:20:00,
2013-03-11 03:25:00,31.6,27.4,30.31,NE,45,0.0,0.0,84,0.00,,,0.00,WUHU21623XXSP,2013-03-11 07:25:00,
2013-03-11 03:30:00,31.3,27.0,30.31,NE,45,0.0,0.0,84,0.00,,,0.00,WUHU21623XXSP,2013-03-11 07:30:00,
2013-03-11 03:35:00,31.3,27.0,30.31,NE,45,0.0,0.0,84,0.00,,,0.00,WUHU21623XXSP,2013-03-11 07:35:00,
2013-03-11 03:40:00,31.1,26.9,30.31,NE,45,0.0,0.0,84,0.00,,,0.00,WUHU21623XXSP,2013-03-11 07:40:00,
2013-03-11 03:45:00,31.3,27.1,30.31,NE,45,0.0,0.0,85,0.00,,,0.00,WUHU21623XXSP,2013-03-11 07:45:00,
2013-03-11 03:50:00,31.3,27.3,30.31,NE,45,0.0,0.0,85,0.00,,,0.00,WUHU21623XXSP,2013-03-11 07:50:00,
2013-03-11 03:55:00,31.1,27.1,30.31,NE,45,0.0,0.0,85,0.00,,,0.00,WUHU21623XXSP,2013-03-11 07:55:00,
2013-03-11 04:00:00,31.1,27.1,30.30,NE,45,0.0,0.0,85,0.00,,,0.00,WUHU21623XXSP,2013-03-11 08:00:00,
2013-03-11 04:05:00,31.3,27.3,30.31,NE,45,0.0,0.0,85,0.00,,,0.00,WUHU21623XXSP,2013-03-11 08:05:00,
2013-03-11 04:10:00,31.1,27.1,30.30,NE,45,0.0,0.0,85,0.00,,,0.00,WUHU21623XXSP,2013-03-11 08:10:00,
2013-03-11 04:15:00,31.6,28.0,30.30,NE,45,0.0,0.0,86,0.00,,,0.00,WUHU21623XXSP,2013-03-11 08:15:00,
2013-03-11 04:20:00,31.3,27.3,30.30,NE,45,0.0,0.0,85,0.00,,,0.00,WUHU21623XXSP,2013-03-11 08:20:00,
2013-03-11 04:25:00,31.3,27.3,30.29,NE,45,0.0,0.0,85,0.00,,,0.00,WUHU21623XXSP,2013-03-11 08:25:00,
2013-03-11 04:30:00,31.3,27.3,30.29,NE,45,0.0,0.0,85,0.00,,,0.00,WUHU21623XXSP,2013-03-11 08:30:00,
2013-03-11 04:35:00,31.3,27.6,30.28,NE,45,0.0,0.0,86,0.00,,,0.00,WUHU21623XXSP,2013-03-11 08:35:00,
2013-03-11 04:40:00,31.6,28.0,30.28,NE,45,0.0,0.0,86,0.00,,,0.00,WUHU21623XXSP,2013-03-11 08:40:00,
2013-03-11 04:45:00,31.8,27.9,30.28,NE,45,0.0,0.0,85,0.00,,,0.00,WUHU21623XXSP,2013-03-11 08:45:00,
2013-03-11 04:50:00,32.2,28.2,30.28,ENE,67,0.0,0.0,85,0.00,,,0.00,WUHU21623XXSP,2013-03-11 08:50:00,
2013-03-11 04:55:00,32.5,28.5,30.27,ENE,67,0.0,0.0,85,0.00,,,0.00,WUHU21623XXSP,2013-03-11 08:55:00,
2013-03-11 05:00:00,32.5,28.2,30.27,ESE,112,0.0,2.2,84,0.00,,,0.00,WUHU21623XXSP,2013-03-11 09:00:00,
2013-03-11 05:05:00,32.9,28.6,30.27,ESE,112,0.0,2.2,84,0.00,,,0.00,WUHU21623XXSP,2013-03-11 09:05:00,
2013-03-11 05:10:00,32.5,28.2,30.27,ESE,112,0.0,0.0,84,0.00,,,0.00,WUHU21623XXSP,2013-03-11 09:10:00,
2013-03-11 05:15:00,32.7,28.4,30.27,ESE,112,0.0,0.0,84,0.00,,,0.00,WUHU21623XXSP,2013-03-11 09:15:00,
2013-03-11 05:20:00,32.2,27.9,30.28,ESE,112,0.0,0.0,84,0.00,,,0.00,WUHU21623XXSP,2013-03-11 09:20:00,
2013-03-11 05:25:00,31.6,27.4,30.28,ESE,112,0.0,0.0,84,0.00,,,0.00,WUHU21623XXSP,2013-03-11 09:25:00,
2013-03-11 05:30:00,31.3,27.3,30.28,ESE,112,0.0,0.0,85,0.00,,,0.00,WUHU21623XXSP,2013-03-11 09:30:00,
2013-03-11 05:35:00,31.5,27.5,30.28,ESE,112,0.0,0.0,85,0.00,,,0.00,WUHU21623XXSP,2013-03-11 09:35:00,
2013-03-11 05:40:00,31.6,27.7,30.28,ESE,112,0.0,0.0,85,0.00,,,0.00,WUHU21623XXSP,2013-03-11 09:40:00,
2013-03-11 05:45:00,31.8,27.9,30.29,ESE,112,0.0,0.0,85,0.00,,,0.00,WUHU21623XXSP,2013-03-11 09:45:00,
2013-03-11 05:50:00,31.8,27.9,30.29,ESE,112,0.0,0.0,85,0.00,,,0.00,WUHU21623XXSP,2013-03-11 09:50:00,
2013-03-11 05:55:00,32.2,28.2,30.29,ESE,112,0.0,0.0,85,0.00,,,0.00,WUHU21623XXSP,2013-03-11 09:55:00,
2013-03-11 06:00:00,31.8,27.9,30.28,ESE,112,0.0,0.0,85,0.00,,,0.00,WUHU21623XXSP,2013-03-11 10:00:00,
2013-03-11 06:05:00,31.8,27.9,30.29,ESE,112,0.0,0.0,85,0.00,,,0.00,WUHU21623XXSP,2013-03-11 10:05:00,
2013-03-11 06:10:00,31.3,27.3,30.29,ESE,112,0.0,0.0,85,0.00,,,0.00,WUHU21623XXSP,2013-03-11 10:10:00,
2013-03-11 06:15:00,31.1,27.4,30.28,ESE,112,0.0,0.0,86,0.00,,,0.00,WUHU21623XXSP,2013-03-11 10:15:00,
2013-03-11 06:20:00,31.1,27.4,30.29,ESE,112,0.0,0.0,86,0.00,,,0.00,WUHU21623XXSP,2013-03-11 10:20:00,
2013-03-11 06:25:00,30.9,27.2,30.29,East,90,0.0,0.0,86,0.00,,,0.00,WUHU21623XXSP,2013-03-11 10:25:00,
2013-03-11 06:30:00,31.3,27.6,30.28,East,90,0.0,0.0,86,0.00,,,0.00,WUHU21623XXSP,2013-03-11 10:30:00,
2013-03-11 06:35:00,31.3,27.6,30.28,East,90,0.0,0.0,86,0.00,,,0.00,WUHU21623XXSP,2013-03-11 10:35:00,
2013-03-11 06:40:00,31.6,28.0,30.28,East,90,0.0,0.0,86,0.00,,,0.00,WUHU21623XXSP,2013-03-11 10:40:00,
2013-03-11 06:45:00,31.6,28.0,30.28,East,90,0.0,0.0,86,0.00,,,0.00,WUHU21623XXSP,2013-03-11 10:45:00,
2013-03-11 06:50:00,31.6,28.0,30.28,East,90,0.0,0.0,86,0.00,,,0.00,WUHU21623XXSP,2013-03-11 10:50:00,
2013-03-11 06:55:00,31.6,28.0,30.28,East,90,0.0,0.0,86,0.00,,,0.00,WUHU21623XXSP,2013-03-11 10:55:00,
2013-03-11 07:00:00,31.3,27.6,30.28,East,90,0.0,0.0,86,0.00,,,0.00,WUHU21623XXSP,2013-03-11 11:00:00,
2013-03-11 07:05:00,31.3,27.6,30.28,East,90,0.0,0.0,86,0.00,,,0.00,WUHU21623XXSP,2013-03-11 11:05:00,
2013-03-11 07:10:00,31.3,27.6,30.28,East,90,0.0,0.0,86,0.00,,,0.00,WUHU21623XXSP,2013-03-11 11:10:00,
2013-03-11 07:15:00,31.6,28.0,30.28,East,90,0.0,0.0,86,0.00,,,0.00,WUHU21623XXSP,2013-03-11 11:15:00,
2013-03-11 07:20:00,31.6,28.0,30.28,East,90,0.0,0.0,86,0.00,,,0.00,WUHU21623XXSP,2013-03-11 11:20:00,
2013-03-11 07:25:00,31.6,28.0,30.28,East,90,0.0,0.0,86,0.00,,,0.00,WUHU21623XXSP,2013-03-11 11:25:00,
2013-03-11 07:30:00,31.3,27.6,30.28,East,90,0.0,0.0,86,0.00,,,0.00,WUHU21623XXSP,2013-03-11 11:30:00,
2013-03-11 07:35:00,31.3,27.6,30.28,East,90,0.0,0.0,86,0.00,,,0.00,WUHU21623XXSP,2013-03-11 11:35:00,
2013-03-11 07:40:00,31.3,27.6,30.28,East,90,0.0,0.0,86,0.00,,,0.00,WUHU21623XXSP,2013-03-11 11:40:00,
2013-03-11 07:45:00,31.3,27.6,30.28,East,90,0.0,0.0,86,0.00,,,0.00,WUHU21623XXSP,2013-03-11 11:45:00,
2013-03-11 07:50:00,31.6,28.0,30.28,East,90,0.0,0.0,86,0.00,,,0.00,WUHU21623XXSP,2013-03-11 11:50:00,
2013-03-11 07:55:00,32.2,28.5,30.28,East,90,0.0,0.0,86,0.00,,,0.00,WUHU21623XXSP,2013-03-11 11:55:00,
2013-03-11 08:00:00,32.7,28.7,30.28,East,90,0.0,0.9,85,0.00,,,0.00,WUHU21623XXSP,2013-03-11 12:00:00,
2013-03-11 08:05:00,33.4,29.3,30.28,East,90,0.0,0.9,85,0.00,,,0.00,WUHU21623XXSP,2013-03-11 12:05:00,
2013-03-11 08:10:00,33.3,28.9,30.28,East,90,0.0,0.0,84,0.00,,,0.00,WUHU21623XXSP,2013-03-11 12:10:00,
2013-03-11 08:15:00,32.7,28.6,30.28,East,90,0.0,0.0,84,0.00,,,0.00,WUHU21623XXSP,2013-03-11 12:15:00,
2013-03-11 08:20:00,32.7,28.4,30.28,East,90,0.0,0.0,84,0.00,,,0.00,WUHU21623XXSP,2013-03-11 12:20:00,
2013-03-11 08:25:00,32.9,28.6,30.28,East,90,0.0,0.0,84,0.00,,,0.00,WUHU21623XXSP,2013-03-11 12:25:00,
2013-03-11 08:30:00,33.3,28.9,30.28,East,90,0.0,0.0,84,0.00,,,0.00,WUHU21623XXSP,2013-03-11 12:30:00,
2013-03-11 08:35:00,33.6,28.9,30.28,East,90,0.0,0.0,83,0.00,,,0.00,WUHU21623XXSP,2013-03-11 12:35:00,
2013-03-11 08:40:00,33.6,28.9,30.28,East,90,0.0,0.0,83,0.00,,,0.00,WUHU21623XXSP,2013-03-11 12:40:00,
2013-03-11 08:45:00,33.8,29.1,30.28,East,90,0.0,0.0,83,0.00,,,0.00,WUHU21623XXSP,2013-03-11 12:45:00,
2013-03-11 08:50:00,34.3,29.9,30.28,East,90,0.0,0.0,84,0.00,,,0.00,WUHU21623XXSP,2013-03-11 12:50:00,
2013-03-11 08:55:00,34.0,29.0,30.28,East,90,0.0,0.0,82,0.00,,,0.00,WUHU21623XXSP,2013-03-11 12:55:00,
2013-03-11 09:00:00,34.2,29.2,30.28,East,90,0.0,0.0,82,0.00,,,0.00,WUHU21623XXSP,2013-03-11 13:00:00,
2013-03-11 09:05:00,34.3,29.3,30.28,East,90,0.0,0.0,82,0.00,,,0.00,WUHU21623XXSP,2013-03-11 13:05:00,
2013-03-11 09:10:00,34.7,29.4,30.27,East,90,0.0,0.0,81,0.00,,,0.00,WUHU21623XXSP,2013-03-11 13:10:00,
2013-03-11 09:15:00,35.2,29.9,30.28,SW,225,0.0,0.0,81,0.00,,,0.00,WUHU21623XXSP,2013-03-11 13:15:00,
2013-03-11 09:20:00,35.8,30.2,30.27,SW,225,0.0,0.0,80,0.00,,,0.00,WUHU21623XXSP,2013-03-11 13:20:00,
2013-03-11 09:25:00,36.3,30.1,30.27,SW,225,0.0,2.2,78,0.00,,,0.00,WUHU21623XXSP,2013-03-11 13:25:00,
2013-03-11 09:30:00,36.7,30.5,30.28,SW,225,0.0,2.2,78,0.00,,,0.00,WUHU21623XXSP,2013-03-11 13:30:00,
2013-03-11 09:35:00,36.9,30.3,30.28,SW,225,0.0,0.0,77,0.00,,,0.00,WUHU21623XXSP,2013-03-11 13:35:00,
2013-03-11 09:40:00,37.2,30.7,30.28,SW,225,0.0,0.0,77,0.00,,,0.00,WUHU21623XXSP,2013-03-11 13:40:00,
2013-03-11 09:45:00,37.2,30.0,30.28,SW,225,0.0,0.0,75,0.00,,,0.00,WUHU21623XXSP,2013-03-11 13:45:00,
2013-03-11 09:50:00,37.6,30.4,30.29,SW,225,0.0,0.0,75,0.00,,,0.00,WUHU21623XXSP,2013-03-11 13:50:00,
2013-03-11 09:55:00,37.6,30.0,30.28,SW,225,0.0,0.0,74,0.00,,,0.00,WUHU21623XXSP,2013-03-11 13:55:00,
2013-03-11 10:00:00,37.8,29.9,30.29,SW,225,0.0,0.0,73,0.00,,,0.00,WUHU21623XXSP,2013-03-11 14:00:00,
2013-03-11 10:05:00,38.1,29.6,30.28,South,180,0.0,2.2,71,0.00,,,0.00,WUHU21623XXSP,2013-03-11 14:05:00,
2013-03-11 10:10:00,38.8,29.5,30.28,SSE,157,0.0,5.1,69,0.00,,,0.00,WUHU21623XXSP,2013-03-11 14:10:00,
2013-03-11 10:15:00,39.6,29.4,30.29,ESE,112,0.0,5.1,67,0.00,,,0.00,WUHU21623XXSP,2013-03-11 14:15:00,
2013-03-11 10:20:00,40.6,29.8,30.28,ESE,112,0.0,4.7,65,0.00,,,0.00,WUHU21623XXSP,2013-03-11 14:20:00,
2013-03-11 10:25:00,41.2,28.8,30.29,SE,135,2.9,6.5,61,0.00,,,0.00,WUHU21623XXSP,2013-03-11 14:25:00,
2013-03-11 10:30:00,41.4,28.5,30.28,SSE,157,2.2,6.5,60,0.00,,,0.00,WUHU21623XXSP,2013-03-11 14:30:00,
2013-03-11 10:35:00,41.4,28.1,30.28,ESE,112,0.0,5.6,59,0.00,,,0.00,WUHU21623XXSP,2013-03-11 14:35:00,
2013-03-11 10:40:00,41.5,27.4,30.28,SSE,157,0.0,7.2,57,0.00,,,0.00,WUHU21623XXSP,2013-03-11 14:40:00,
2013-03-11 10:45:00,41.7,27.5,30.29,SSE,157,0.0,7.2,57,0.00,,,0.00,WUHU21623XXSP,2013-03-11 14:45:00,
2013-03-11 10:50:00,41.9,27.7,30.29,SSE,157,0.0,5.4,57,0.00,,,0.00,WUHU21623XXSP,2013-03-11 14:50:00,
2013-03-11 10:55:00,41.9,27.7,30.28,SE,135,1.6,7.8,57,0.00,,,0.00,WUHU21623XXSP,2013-03-11 14:55:00,
2013-03-11 11:00:00,42.3,27.6,30.28,ESE,112,0.0,8.3,56,0.00,,,0.00,WUHU21623XXSP,2013-03-11 15:00:00,
2013-03-11 11:05:00,42.8,27.2,30.28,ESE,112,0.0,8.7,54,0.00,,,0.00,WUHU21623XXSP,2013-03-11 15:05:00,
2013-03-11 11:10:00,43.3,27.8,30.28,SSE,157,3.6,9.2,54,0.00,,,0.00,WUHU21623XXSP,2013-03-11 15:10:00,
2013-03-11 11:15:00,43.3,27.8,30.28,SSE,157,0.0,9.2,54,0.00,,,0.00,WUHU21623XXSP,2013-03-11 15:15:00,
2013-03-11 11:20:00,43.7,27.2,30.28,SE,135,8.7,11.6,52,0.00,,,0.00,WUHU21623XXSP,2013-03-11 15:20:00,
2013-03-11 11:25:00,43.9,27.4,30.28,SSW,202,3.8,11.6,52,0.00,,,0.00,WUHU21623XXSP,2013-03-11 15:25:00,
2013-03-11 11:30:00,44.4,27.4,30.28,SW,225,1.8,8.1,51,0.00,,,0.00,WUHU21623XXSP,2013-03-11 15:30:00,
2013-03-11 11:35:00,45.0,27.5,30.28,SE,135,0.0,3.8,50,0.00,,,0.00,WUHU21623XXSP,2013-03-11 15:35:00,
2013-03-11 11:40:00,45.3,27.2,30.28,SE,135,1.1,7.2,49,0.00,,,0.00,WUHU21623XXSP,2013-03-11 15:40:00,
2013-03-11 11:45:00,45.1,26.5,30.28,SE,135,0.0,11.6,48,0.00,,,0.00,WUHU21623XXSP,2013-03-11 15:45:00,
2013-03-11 11:50:00,45.3,26.2,30.27,SSE,157,0.0,11.6,47,0.00,,,0.00,WUHU21623XXSP,2013-03-11 15:50:00,
2013-03-11 11:55:00,45.5,26.9,30.27,ESE,112,1.1,6.5,48,0.00,,,0.00,WUHU21623XXSP,2013-03-11 15:55:00,
2013-03-11 12:00:00,45.5,26.3,30.27,SE,135,0.0,6.5,47,0.00,,,0.00,WUHU21623XXSP,2013-03-11 16:00:00,
2013-03-11 12:05:00,45.5,26.9,30.27,SE,135,0.0,8.5,48,0.00,,,0.00,WUHU21623XXSP,2013-03-11 16:05:00,
2013-03-11 12:10:00,45.3,26.7,30.28,SSE,157,0.0,8.5,48,0.00,,,0.00,WUHU21623XXSP,2013-03-11 16:10:00,
2013-03-11 12:15:00,45.3,26.7,30.28,ENE,67,2.5,7.4,48,0.00,,,0.00,WUHU21623XXSP,2013-03-11 16:15:00,
2013-03-11 12:20:00,45.5,26.9,30.28,SSE,157,0.0,9.6,48,0.00,,,0.00,WUHU21623XXSP,2013-03-11 16:20:00,
2013-03-11 12:25:00,46.0,26.8,30.28,SE,135,2.9,13.9,47,0.00,,,0.00,WUHU21623XXSP,2013-03-11 16:25:00,
2013-03-11 12:30:00,46.6,27.8,30.27,SE,135,4.5,13.9,48,0.00,,,0.00,WUHU21623XXSP,2013-03-11 16:30:00,
2013-03-11 12:35:00,46.9,27.1,30.27,SE,135,0.0,11.6,46,0.00,,,0.00,WUHU21623XXSP,2013-03-11 16:35:00,
2013-03-11 12:40:00,47.5,28.1,30.27,SSE,157,2.7,11.6,47,0.00,,,0.00,WUHU21623XXSP,2013-03-11 16:40:00,
2013-03-11 12:45:00,47.3,26.9,30.26,SSE,157,5.4,11.2,45,0.00,,,0.00,WUHU21623XXSP,2013-03-11 16:45:00,
2013-03-11 12:50:00,47.1,27.2,30.27,SSE,157,0.0,11.2,46,0.00,,,0.00,WUHU21623XXSP,2013-03-11 16:50:00,
2013-03-11 12:55:00,47.3,26.9,30.27,ESE,112,0.0,8.1,45,0.00,,,0.00,WUHU21623XXSP,2013-03-11 16:55:00,
2013-03-11 13:00:00,47.8,27.9,30.26,SSE,157,0.0,8.1,46,0.00,,,0.00,WUHU21623XXSP,2013-03-11 17:00:00,
2013-03-11 13:05:00,48.4,27.8,30.26,SE,135,0.0,9.2,45,0.00,,,0.00,WUHU21623XXSP,2013-03-11 17:05:00,
2013-03-11 13:10:00,48.4,28.9,30.26,SSE,157,6.5,9.2,47,0.00,,,0.00,WUHU21623XXSP,2013-03-11 17:10:00,
2013-03-11 13:15:00,48.4,28.4,30.26,SE,135,0.0,9.2,46,0.00,,,0.00,WUHU21623XXSP,2013-03-11 17:15:00,
2013-03-11 13:20:00,48.0,28.6,30.26,ESE,112,6.3,9.2,47,0.00,,,0.00,WUHU21623XXSP,2013-03-11 17:20:00,
2013-03-11 13:25:00,47.3,27.4,30.25,SE,135,4.5,8.9,46,0.00,,,0.00,WUHU21623XXSP,2013-03-11 17:25:00,
2013-03-11 13:30:00,47.5,29.7,30.25,ENE,67,6.0,9.2,50,0.00,,,0.00,WUHU21623XXSP,2013-03-11 17:30:00,
2013-03-11 13:35:00,47.3,27.4,30.25,SE,135,1.3,9.2,46,0.00,,,0.00,WUHU21623XXSP,2013-03-11 17:35:00,
2013-03-11 13:40:00,46.8,27.5,30.25,SE,135,1.1,8.3,47,0.00,,,0.00,WUHU21623XXSP,2013-03-11 17:40:00,
2013-03-11 13:45:00,46.9,28.2,30.25,SSE,157,6.0,11.0,48,0.00,,,0.00,WUHU21623XXSP,2013-03-11 17:45:00,
2013-03-11 13:50:00,47.3,27.9,30.25,SSE,157,0.0,11.0,47,0.00,,,0.00,WUHU21623XXSP,2013-03-11 17:50:00,
2013-03-11 13:55:00,46.8,27.5,30.25,SE,135,0.0,11.0,47,0.00,,,0.00,WUHU21623XXSP,2013-03-11 17:55:00,
2013-03-11 14:00:00,47.1,27.8,30.25,SE,135,0.0,10.1,47,0.00,,,0.00,WUHU21623XXSP,2013-03-11 18:00:00,
2013-03-11 14:05:00,46.9,27.6,30.25,ESE,112,0.0,6.3,47,0.00,,,0.00,WUHU21623XXSP,2013-03-11 18:05:00,
2013-03-11 14:10:00,46.6,27.3,30.24,WSW,247,0.0,7.6,47,0.00,,,0.00,WUHU21623XXSP,2013-03-11 18:10:00,
2013-03-11 14:15:00,46.2,27.5,30.24,SSE,157,6.9,10.3,48,0.00,,,0.00,WUHU21623XXSP,2013-03-11 18:15:00,
2013-03-11 14:20:00,46.6,27.8,30.24,SSE,157,5.6,10.3,48,0.00,,,0.00,WUHU21623XXSP,2013-03-11 18:20:00,
2013-03-11 14:25:00,46.6,27.8,30.24,ESE,112,0.0,10.5,48,0.00,,,0.00,WUHU21623XXSP,2013-03-11 18:25:00,
2013-03-11 14:30:00,46.6,27.8,30.24,SSE,157,0.0,10.5,48,0.00,,,0.00,WUHU21623XXSP,2013-03-11 18:30:00,
2013-03-11 14:35:00,46.9,28.2,30.24,SSE,157,0.0,9.6,48,0.00,,,0.00,WUHU21623XXSP,2013-03-11 18:35:00,
2013-03-11 14:40:00,47.1,28.3,30.24,South,180,0.0,7.8,48,0.00,,,0.00,WUHU21623XXSP,2013-03-11 18:40:00,
2013-03-11 14:45:00,47.3,27.9,30.24,SSE,157,0.0,7.2,47,0.00,,,0.00,WUHU21623XXSP,2013-03-11 18:45:00,
2013-03-11 14:50:00,47.1,27.8,30.24,SE,135,4.5,7.2,47,0.00,,,0.00,WUHU21623XXSP,2013-03-11 18:50:00,
2013-03-11 14:55:00,47.1,27.8,30.24,SE,135,0.0,5.6,47,0.00,,,0.00,WUHU21623XXSP,2013-03-11 18:55:00,
2013-03-11 15:00:00,46.8,28.0,30.24,South,180,6.5,6.5,48,0.00,,,0.00,WUHU21623XXSP,2013-03-11 19:00:00,
2013-03-11 15:05:00,46.6,27.8,30.24,SE,135,0.0,6.5,48,0.00,,,0.00,WUHU21623XXSP,2013-03-11 19:05:00,
2013-03-11 15:10:00,46.6,27.8,30.23,SSE,157,4.0,5.8,48,0.00,,,0.00,WUHU21623XXSP,2013-03-11 19:10:00,
2013-03-11 15:15:00,46.6,29.4,30.23,SSE,157,0.0,4.0,51,0.00,,,0.00,WUHU21623XXSP,2013-03-11 19:15:00,
2013-03-11 15:20:00,46.2,28.6,30.23,SSE,157,2.7,6.7,50,0.00,,,0.00,WUHU21623XXSP,2013-03-11 19:20:00,
2013-03-11 15:25:00,46.0,28.9,30.23,SE,135,0.0,6.7,51,0.00,,,0.00,WUHU21623XXSP,2013-03-11 19:25:00,
2013-03-11 15:30:00,46.0,28.9,30.24,SE,135,0.0,4.7,51,0.00,,,0.00,WUHU21623XXSP,2013-03-11 19:30:00,
2013-03-11 15:35:00,46.0,29.3,30.23,ESE,112,0.0,4.7,52,0.00,,,0.00,WUHU21623XXSP,2013-03-11 19:35:00,
2013-03-11 15:40:00,46.2,29.9,30.23,SSE,157,2.9,6.5,53,0.00,,,0.00,WUHU21623XXSP,2013-03-11 19:40:00,
2013-03-11 15:45:00,46.2,29.9,30.23,SSE,157,3.6,6.5,53,0.00,,,0.00,WUHU21623XXSP,2013-03-11 19:45:00,
2013-03-11 15:50:00,46.6,29.8,30.23,SE,135,5.6,6.0,52,0.00,,,0.00,WUHU21623XXSP,2013-03-11 19:50:00,
2013-03-11 15:55:00,46.2,29.9,30.23,SSE,157,0.0,5.6,53,0.00,,,0.00,WUHU21623XXSP,2013-03-11 19:55:00,
2013-03-11 16:00:00,46.0,29.8,30.23,SE,135,0.0,5.6,53,0.00,,,0.00,WUHU21623XXSP,2013-03-11 20:00:00,
2013-03-11 16:05:00,45.9,30.1,30.23,SSE,157,0.0,5.6,54,0.00,,,0.00,WUHU21623XXSP,2013-03-11 20:05:00,
2013-03-11 16:10:00,45.7,29.9,30.23,SSE,157,2.7,4.0,54,0.00,,,0.00,WUHU21623XXSP,2013-03-11 20:10:00,
2013-03-11 16:15:00,45.7,29.9,30.23,SE,135,5.4,6.3,54,0.00,,,0.00,WUHU21623XXSP,2013-03-11 20:15:00,
2013-03-11 16:20:00,45.3,29.6,30.23,SE,135,5.1,11.6,54,0.00,,,0.00,WUHU21623XXSP,2013-03-11 20:20:00,
2013-03-11 16:25:00,45.1,29.9,30.23,SSW,202,0.0,11.6,55,0.00,,,0.00,WUHU21623XXSP,2013-03-11 20:25:00,
2013-03-11 16:30:00,45.1,29.9,30.22,ESE,112,3.1,9.6,55,0.00,,,0.00,WUHU21623XXSP,2013-03-11 20:30:00,
2013-03-11 16:35:00,45.1,29.9,30.22,SSE,157,0.0,5.6,55,0.00,,,0.00,WUHU21623XXSP,2013-03-11 20:35:00,
2013-03-11 16:40:00,45.1,29.9,30.22,SSE,157,0.0,4.0,55,0.00,,,0.00,WUHU21623XXSP,2013-03-11 20:40:00,
2013-03-11 16:45:00,45.1,29.4,30.22,SSE,157,0.0,6.0,54,0.00,,,0.00,WUHU21623XXSP,2013-03-11 20:45:00,
2013-03-11 16:50:00,45.1,29.9,30.22,ESE,112,0.0,6.0,55,0.00,,,0.00,WUHU21623XXSP,2013-03-11 20:50:00,
2013-03-11 16:55:00,45.0,29.7,30.21,SE,135,0.0,5.6,55,0.00,,,0.00,WUHU21623XXSP,2013-03-11 20:55:00,
2013-03-11 17:00:00,45.0,29.7,30.21,SE,135,0.0,7.4,55,0.00,,,0.00,WUHU21623XXSP,2013-03-11 21:00:00,
2013-03-11 17:05:00,44.8,29.6,30.22,SSE,157,0.0,7.4,55,0.00,,,0.00,WUHU21623XXSP,2013-03-11 21:05:00,
2013-03-11 17:10:00,44.6,29.8,30.21,East,90,0.0,4.0,56,0.00,,,0.00,WUHU21623XXSP,2013-03-11 21:10:00,
2013-03-11 17:15:00,44.2,29.9,30.22,SE,135,1.1,4.0,57,0.00,,,0.00,WUHU21623XXSP,2013-03-11 21:15:00,
2013-03-11 17:20:00,44.2,29.9,30.21,SE,135,0.0,2.5,57,0.00,,,0.00,WUHU21623XXSP,2013-03-11 21:20:00,
2013-03-11 17:25:00,44.2,29.9,30.21,SE,135,0.0,4.3,57,0.00,,,0.00,WUHU21623XXSP,2013-03-11 21:25:00,
2013-03-11 17:30:00,44.4,30.1,30.21,SE,135,0.0,4.9,57,0.00,,,0.00,WUHU21623XXSP,2013-03-11 21:30:00,
2013-03-11 17:35:00,44.6,30.3,30.22,SE,135,0.0,4.9,57,0.00,,,0.00,WUHU21623XXSP,2013-03-11 21:35:00,
2013-03-11 17:40:00,44.8,30.9,30.21,SE,135,0.0,5.4,58,0.00,,,0.00,WUHU21623XXSP,2013-03-11 21:40:00,
2013-03-11 17:45:00,44.4,30.6,30.21,SE,135,0.0,5.4,58,0.00,,,0.00,WUHU21623XXSP,2013-03-11 21:45:00,
2013-03-11 17:50:00,44.1,30.2,30.21,ESE,112,0.0,4.3,58,0.00,,,0.00,WUHU21623XXSP,2013-03-11 21:50:00,
2013-03-11 17:55:00,44.1,30.2,30.21,SSE,157,5.4,6.5,58,0.00,,,0.00,WUHU21623XXSP,2013-03-11 21:55:00,
2013-03-11 18:00:00,44.2,30.4,30.21,SSE,157,0.0,8.7,58,0.00,,,0.00,WUHU21623XXSP,2013-03-11 22:00:00,
2013-03-11 18:05:00,43.9,30.5,30.21,SE,135,4.5,8.7,59,0.00,,,0.00,WUHU21623XXSP,2013-03-11 22:05:00,
2013-03-11 18:10:00,43.9,30.5,30.21,ESE,112,0.0,5.1,59,0.00,,,0.00,WUHU21623XXSP,2013-03-11 22:10:00,
2013-03-11 18:15:00,43.5,30.6,30.21,ESE,112,0.0,5.1,60,0.00,,,0.00,WUHU21623XXSP,2013-03-11 22:15:00,
2013-03-11 18:20:00,43.5,30.1,30.21,ESE,112,0.0,2.0,59,0.00,,,0.00,WUHU21623XXSP,2013-03-11 22:20:00,
2013-03-11 18:25:00,43.3,30.4,30.21,ESE,112,0.0,1.3,60,0.00,,,0.00,WUHU21623XXSP,2013-03-11 22:25:00,
2013-03-11 18:30:00,43.3,30.4,30.20,SSE,157,0.0,2.9,60,0.00,,,0.00,WUHU21623XXSP,2013-03-11 22:30:00,
2013-03-11 18:35:00,43.2,30.2,30.20,ENE,67,0.0,2.9,60,0.00,,,0.00,WUHU21623XXSP,2013-03-11 22:35:00,
2013-03-11 18:40:00,43.2,30.2,30.20,East,90,0.0,1.3,60,0.00,,,0.00,WUHU21623XXSP,2013-03-11 22:40:00,
2013-03-11 18:45:00,43.0,30.0,30.21,East,90,0.0,1.3,60,0.00,,,0.00,WUHU21623XXSP,2013-03-11 22:45:00,
2013-03-11 18:50:00,43.5,30.9,30.21,East,90,0.0,0.0,61,0.00,,,0.00,WUHU21623XXSP,2013-03-11 22:50:00,
2013-03-11 18:55:00,43.5,30.1,30.21,East,90,0.0,0.0,59,0.00,,,0.00,WUHU21623XXSP,2013-03-11 22:55:00,
2013-03-11 19:00:00,43.3,29.9,30.21,East,90,0.0,0.0,59,0.00,,,0.00,WUHU21623XXSP,2013-03-11 23:00:00,
2013-03-11 19:05:00,43.5,30.6,30.22,East,90,0.0,0.0,60,0.00,,,0.00,WUHU21623XXSP,2013-03-11 23:05:00,
2013-03-11 19:10:00,43.5,30.1,30.22,East,90,0.0,0.0,59,0.00,,,0.00,WUHU21623XXSP,2013-03-11 23:10:00,
2013-03-11 19:15:00,43.3,29.9,30.22,East,90,0.0,0.0,59,0.00,,,0.00,WUHU21623XXSP,2013-03-11 23:15:00,
2013-03-11 19:20:00,43.0,29.6,30.22,East,90,0.0,0.0,59,0.00,,,0.00,WUHU21623XXSP,2013-03-11 23:20:00,
2013-03-11 19:25:00,42.6,29.7,30.21,East,90,0.0,0.0,60,0.00,,,0.00,WUHU21623XXSP,2013-03-11 23:25:00,
2013-03-11 19:30:00,42.6,30.1,30.21,East,90,0.0,0.0,61,0.00,,,0.00,WUHU21623XXSP,2013-03-11 23:30:00,
2013-03-11 19:35:00,42.6,29.7,30.21,East,90,0.0,0.0,60,0.00,,,0.00,WUHU21623XXSP,2013-03-11 23:35:00,
2013-03-11 19:40:00,43.0,30.0,30.21,East,90,0.0,0.0,60,0.00,,,0.00,WUHU21623XXSP,2013-03-11 23:40:00,
2013-03-11 19:45:00,43.0,30.0,30.20,East,90,0.0,0.0,60,0.00,,,0.00,WUHU21623XXSP,2013-03-11 23:45:00,
2013-03-11 19:50:00,43.0,30.0,30.21,East,90,0.0,0.0,60,0.00,,,0.00,WUHU21623XXSP,2013-03-11 23:50:00,
2013-03-11 19:56:00,42.8,29.8,30.20,East,90,0.0,0.0,60,0.00,,,0.00,WUHU21623XXSP,2013-03-11 23:56:00,
2013-03-11 20:00:00,42.6,29.7,30.20,East,90,0.0,0.0,60,0.00,,,0.00,WUHU21623XXSP,2013-03-12 00:00:00,
2013-03-11 20:06:00,42.4,29.9,30.20,East,90,0.0,0.0,61,0.00,,,0.00,WUHU21623XXSP,2013-03-12 00:06:00,
2013-03-11 20:11:00,42.4,30.3,30.20,East,90,0.0,0.0,62,0.00,,,0.00,WUHU21623XXSP,2013-03-12 00:11:00,
2013-03-11 20:16:00,42.4,30.3,30.20,East,90,0.0,0.0,62,0.00,,,0.00,WUHU21623XXSP,2013-03-12 00:16:00,
2013-03-11 20:20:00,42.4,30.3,30.20,ENE,67,0.0,0.0,62,0.00,,,0.00,WUHU21623XXSP,2013-03-12 00:20:00,
2013-03-11 20:25:00,42.4,30.3,30.20,ENE,67,0.0,0.0,62,0.00,,,0.00,WUHU21623XXSP,2013-03-12 00:25:00,
2013-03-11 20:30:00,42.6,30.8,30.21,ENE,67,0.0,0.0,63,0.00,,,0.00,WUHU21623XXSP,2013-03-12 00:30:00,
2013-03-11 20:35:00,42.4,30.7,30.20,ENE,67,0.0,0.0,63,0.00,,,0.00,WUHU21623XXSP,2013-03-12 00:35:00,
2013-03-11 20:40:00,42.1,30.3,30.21,ENE,67,0.0,0.0,63,0.00,,,0.00,WUHU21623XXSP,2013-03-12 00:40:00,
2013-03-11 20:45:00,42.1,31.1,30.21,ENE,67,0.0,0.0,65,0.00,,,0.00,WUHU21623XXSP,2013-03-12 00:45:00,
2013-03-11 20:50:00,41.9,30.6,30.21,ENE,67,0.0,0.0,64,0.00,,,0.00,WUHU21623XXSP,2013-03-12 00:50:00,
2013-03-11 20:55:00,41.5,30.2,30.21,ENE,67,0.0,0.0,64,0.00,,,0.00,WUHU21623XXSP,2013-03-12 00:55:00,
2013-03-11 21:00:00,41.5,30.6,30.20,ENE,67,0.0,0.0,65,0.00,,,0.00,WUHU21623XXSP,2013-03-12 01:00:00,
2013-03-11 21:05:00,41.5,30.6,30.20,ENE,67,0.0,0.0,65,0.00,,,0.00,WUHU21623XXSP,2013-03-12 01:05:00,
2013-03-11 21:10:00,41.5,30.6,30.20,ENE,67,0.0,0.0,65,0.00,,,0.00,WUHU21623XXSP,2013-03-12 01:10:00,
2013-03-11 21:15:00,41.4,30.5,30.20,ENE,67,0.0,0.0,65,0.00,,,0.00,WUHU21623XXSP,2013-03-12 01:15:00,
2013-03-11 21:20:00,41.4,30.8,30.20,ENE,67,0.0,0.0,66,0.00,,,0.00,WUHU21623XXSP,2013-03-12 01:20:00,
2013-03-11 21:25:00,41.2,31.0,30.20,ENE,67,0.0,0.0,67,0.00,,,0.00,WUHU21623XXSP,2013-03-12 01:25:00,
2013-03-11 21:30:00,41.2,31.0,30.20,ENE,67,0.0,0.0,67,0.00,,,0.00,WUHU21623XXSP,2013-03-12 01:30:00,
2013-03-11 21:35:00,40.8,31.1,30.20,ENE,67,0.0,0.0,68,0.00,,,0.00,WUHU21623XXSP,2013-03-12 01:35:00,
2013-03-11 21:40:00,40.8,31.1,30.20,NE,45,0.0,0.0,68,0.00,,,0.00,WUHU21623XXSP,2013-03-12 01:40:00,
2013-03-11 21:45:00,40.6,30.9,30.20,ENE,67,0.0,0.0,68,0.00,,,0.00,WUHU21623XXSP,2013-03-12 01:45:00,
2013-03-11 21:50:00,40.5,30.7,30.20,ENE,67,1.1,1.3,68,0.00,,,0.00,WUHU21623XXSP,2013-03-12 01:50:00,
2013-03-11 21:55:00,40.5,31.1,30.20,SE,135,0.0,5.6,69,0.00,,,0.00,WUHU21623XXSP,2013-03-12 01:55:00,
2013-03-11 22:00:00,40.3,30.9,30.20,SSE,157,0.0,5.6,69,0.00,,,0.00,WUHU21623XXSP,2013-03-12 02:00:00,
2013-03-11 22:05:00,40.1,31.1,30.20,SSE,157,0.0,0.0,70,0.00,,,0.00,WUHU21623XXSP,2013-03-12 02:05:00,
2013-03-11 22:10:00,40.1,31.1,30.20,SE,135,4.0,4.0,70,0.00,,,0.00,WUHU21623XXSP,2013-03-12 02:10:00,
2013-03-11 22:15:00,40.1,31.4,30.20,SE,135,0.0,4.0,71,0.00,,,0.00,WUHU21623XXSP,2013-03-12 02:15:00,
2013-03-11 22:20:00,39.9,31.6,30.19,SE,135,0.0,1.1,72,0.00,,,0.00,WUHU21623XXSP,2013-03-12 02:20:00,
2013-03-11 22:26:00,39.7,31.4,30.19,ESE,112,0.0,1.1,72,0.00,,,0.00,WUHU21623XXSP,2013-03-12 02:26:00,
2013-03-11 22:31:00,39.4,31.4,30.19,SSE,157,4.3,4.3,73,0.00,,,0.00,WUHU21623XXSP,2013-03-12 02:31:00,
2013-03-11 22:36:00,39.4,31.7,30.19,East,90,0.0,4.3,74,0.00,,,0.00,WUHU21623XXSP,2013-03-12 02:36:00,
2013-03-11 22:41:00,39.7,32.1,30.20,SE,135,0.0,0.0,74,0.00,,,0.00,WUHU21623XXSP,2013-03-12 02:41:00,
2013-03-11 22:46:00,39.4,32.1,30.20,SE,135,0.0,0.0,75,0.00,,,0.00,WUHU21623XXSP,2013-03-12 02:46:00,
2013-03-11 22:51:00,39.6,32.9,30.19,ESE,112,0.0,4.9,77,0.00,,,0.00,WUHU21623XXSP,2013-03-12 02:51:00,
2013-03-11 22:56:00,39.4,33.1,30.19,ESE,112,0.0,9.6,78,0.00,,,0.00,WUHU21623XXSP,2013-03-12 02:56:00,
2013-03-11 23:01:00,39.0,32.8,30.19,ESE,112,0.0,9.6,78,0.00,,,0.00,WUHU21623XXSP,2013-03-12 03:01:00,
2013-03-11 23:06:00,39.4,33.4,30.19,ESE,112,0.0,0.0,79,0.00,,,0.00,WUHU21623XXSP,2013-03-12 03:06:00,
2013-03-11 23:11:00,39.4,33.4,30.20,SW,225,0.0,5.8,79,0.00,,,0.00,WUHU21623XXSP,2013-03-12 03:11:00,
2013-03-11 23:16:00,39.4,33.4,30.20,ESE,112,0.0,5.8,79,0.00,,,0.00,WUHU21623XXSP,2013-03-12 03:16:00,
2013-03-11 23:21:00,39.4,33.8,30.20,SSE,157,6.7,6.7,80,0.00,,,0.00,WUHU21623XXSP,2013-03-12 03:21:00,
2013-03-11 23:26:00,39.0,33.4,30.20,SSE,157,0.0,11.4,80,0.00,,,0.00,WUHU21623XXSP,2013-03-12 03:26:00,
2013-03-11 23:31:00,39.6,33.9,30.19,SSE,157,0.0,11.4,80,0.00,,,0.00,WUHU21623XXSP,2013-03-12 03:31:00,
2013-03-11 23:36:00,39.9,34.3,30.19,SE,135,4.0,11.9,80,0.00,,,0.00,WUHU21623XXSP,2013-03-12 03:36:00,
2013-03-11 23:41:00,39.9,34.3,30.19,East,90,0.0,11.9,80,0.00,,,0.00,WUHU21623XXSP,2013-03-12 03:41:00,
2013-03-11 23:46:00,39.9,34.3,30.19,East,90,5.8,6.9,80,0.00,,,0.00,WUHU21623XXSP,2013-03-12 03:46:00,
2013-03-11 23:51:00,40.3,34.6,30.20,SE,135,0.0,9.4,80,0.00,,,0.00,WUHU21623XXSP,2013-03-12 03:51:00,
2013-03-11 23:56:00,40.3,34.6,30.20,SE,135,0.0,9.4,80,0.00,,,0.00,WUHU21623XXSP,2013-03-12 03:56:00,